sat.trackr.live / text

‹ back to catalog

2026-152B

NORAD 69793 · 2026-152B

UNKNOWN UNKNOWN UNKNOWN

§ Identity

Operator
Country
US
Launch date
2026-07-03
Launch site
WRAS
Launch vehicle
Mass (kg)
RCS (m²)

External: N2YO · Heavens-Above · Gunter

§ Orbital elements

Epoch: 2026-08-02T03:52:40.757376Z

Period
91.92 min
Inclination
20.5968°
Eccentricity
0.0022397
Mean motion
15.66577588 rev/d
Perigee alt
353.6 km
Apogee alt
383.8 km
Semi-major
6,746.8 km
B*
4.8735e-4
RAAN
189.5802°
Arg perigee
238.3350°
Mean anomaly
121.4911°
Rev number
467

§ Raw data

2026-152B1 69793U 26152B   26214.16158284  .00055310  00000+0  48735-3 0  99932 69793  20.5968 189.5802 0022397 238.3350 121.4911 15.66577588  4670

JSON: /api/v1/satellites/69793 · /tle

For live sub-satellite position, see the globe view (requires WebGL).

§ Visibility from observer

Set your observer location to see the next 7 days of passes ≥ 10°. The values pass through the URL so the page stays shareable.

No JS? Fill the form by hand. The geolocation button needs JavaScript.